Time,TemperatureF,DewpointF,PressureIn,WindDirection,WindDirectionDegrees,WindSpeedMPH,WindSpeedGustMPH,Humidity,HourlyPrecipIn,Conditions,Clouds,dailyrainin,SoftwareType,DateUTC
2013-04-20 00:01:00,61.0,42.3,30.09,ENE,59,10.0,13.0,50,0.00,,,0.00,meteohub,2013-04-20 07:01:00,
2013-04-20 00:06:00,61.2,41.9,30.08,NE,44,9.0,14.0,49,0.00,,,0.00,meteohub,2013-04-20 07:06:00,
2013-04-20 00:11:00,61.3,42.1,30.08,NE,46,6.0,14.0,49,0.00,,,0.00,meteohub,2013-04-20 07:11:00,
2013-04-20 00:16:00,61.5,42.3,30.09,NNE,26,6.0,17.0,49,0.00,,,0.00,meteohub,2013-04-20 07:16:00,
2013-04-20 00:21:00,61.5,41.7,30.09,ENE,61,9.0,17.0,48,0.00,,,0.00,meteohub,2013-04-20 07:21:00,
2013-04-20 00:26:00,61.7,41.9,30.09,NNE,21,6.0,17.0,48,0.00,,,0.00,meteohub,2013-04-20 07:26:00,
2013-04-20 00:31:00,61.5,41.7,30.09,NE,46,7.0,14.0,48,0.00,,,0.00,meteohub,2013-04-20 07:31:00,
2013-04-20 00:36:00,61.5,41.7,30.09,NE,44,8.0,14.0,48,0.00,,,0.00,meteohub,2013-04-20 07:36:00,
2013-04-20 00:42:00,61.3,41.5,30.09,NE,39,8.0,14.0,48,0.00,,,0.00,meteohub,2013-04-20 07:42:00,
2013-04-20 00:47:00,61.2,41.9,30.09,NE,38,7.0,14.0,49,0.00,,,0.00,meteohub,2013-04-20 07:47:00,
2013-04-20 00:51:00,61.0,41.7,30.09,NE,37,11.0,15.0,49,0.00,,,0.00,meteohub,2013-04-20 07:51:00,
2013-04-20 00:57:00,60.6,41.4,30.09,NE,44,8.0,15.0,49,0.00,,,0.00,meteohub,2013-04-20 07:57:00,
2013-04-20 01:02:00,60.6,41.4,30.10,NE,46,9.0,15.0,49,0.00,,,0.00,meteohub,2013-04-20 08:02:00,
2013-04-20 01:07:00,60.6,41.4,30.10,NE,52,9.0,13.0,49,0.00,,,0.00,meteohub,2013-04-20 08:07:00,
2013-04-20 01:12:00,60.4,41.7,30.10,NNE,15,8.0,13.0,50,0.00,,,0.00,meteohub,2013-04-20 08:12:00,
2013-04-20 01:17:00,60.4,41.7,30.10,NE,46,10.0,13.0,50,0.00,,,0.00,meteohub,2013-04-20 08:17:00,
2013-04-20 01:22:00,60.3,41.5,30.10,NE,39,12.0,13.0,50,0.00,,,0.00,meteohub,2013-04-20 08:22:00,
2013-04-20 01:27:00,60.3,41.5,30.10,NE,40,8.0,15.0,50,0.00,,,0.00,meteohub,2013-04-20 08:27:00,
2013-04-20 01:32:00,60.3,41.5,30.10,NE,53,7.0,15.0,50,0.00,,,0.00,meteohub,2013-04-20 08:32:00,
2013-04-20 01:37:00,60.3,41.5,30.10,NE,42,10.0,15.0,50,0.00,,,0.00,meteohub,2013-04-20 08:37:00,
2013-04-20 01:42:00,60.4,41.2,30.10,NE,51,12.0,16.0,49,0.00,,,0.00,meteohub,2013-04-20 08:42:00,
2013-04-20 01:47:00,60.4,40.6,30.09,NE,42,13.0,16.0,48,0.00,,,0.00,meteohub,2013-04-20 08:47:00,
2013-04-20 01:52:00,60.6,40.8,30.10,NNE,31,10.0,17.0,48,0.00,,,0.00,meteohub,2013-04-20 08:52:00,
2013-04-20 01:57:00,60.8,40.5,30.10,NE,45,10.0,17.0,47,0.00,,,0.00,meteohub,2013-04-20 08:57:00,
2013-04-20 02:02:00,60.6,40.3,30.10,ENE,69,11.0,17.0,47,0.00,,,0.00,meteohub,2013-04-20 09:02:00,
2013-04-20 02:07:00,60.4,40.6,30.09,NE,55,10.0,17.0,48,0.00,,,0.00,meteohub,2013-04-20 09:07:00,
2013-04-20 02:12:00,60.1,40.8,30.10,NE,45,12.0,16.0,49,0.00,,,0.00,meteohub,2013-04-20 09:12:00,
2013-04-20 02:17:00,59.9,40.6,30.10,NE,40,10.0,16.0,49,0.00,,,0.00,meteohub,2013-04-20 09:17:00,
2013-04-20 02:22:00,59.7,40.5,30.10,ENE,59,11.0,16.0,49,0.00,,,0.00,meteohub,2013-04-20 09:22:00,
2013-04-20 02:27:00,59.7,40.5,30.10,ENE,63,11.0,17.0,49,0.00,,,0.00,meteohub,2013-04-20 09:27:00,
2013-04-20 02:32:00,59.5,39.9,30.09,NNE,23,6.0,17.0,48,0.00,,,0.00,meteohub,2013-04-20 09:32:00,
2013-04-20 02:37:00,59.7,39.4,30.09,ENE,57,10.0,17.0,47,0.00,,,0.00,meteohub,2013-04-20 09:37:00,
2013-04-20 02:42:00,59.7,38.8,30.09,East,82,9.0,17.0,46,0.00,,,0.00,meteohub,2013-04-20 09:42:00,
2013-04-20 02:47:00,59.7,38.3,30.09,NE,46,11.0,17.0,45,0.00,,,0.00,meteohub,2013-04-20 09:47:00,
2013-04-20 02:52:00,59.9,37.9,30.09,NE,40,12.0,15.0,44,0.00,,,0.00,meteohub,2013-04-20 09:52:00,
2013-04-20 02:57:00,60.1,38.1,30.09,NE,42,8.0,17.0,44,0.00,,,0.00,meteohub,2013-04-20 09:57:00,
2013-04-20 03:02:00,59.9,37.9,30.09,NNE,18,9.0,17.0,44,0.00,,,0.00,meteohub,2013-04-20 10:02:00,
2013-04-20 03:07:00,59.7,37.8,30.09,ENE,58,14.0,17.0,44,0.00,,,0.00,meteohub,2013-04-20 10:07:00,
2013-04-20 03:12:00,59.5,37.6,30.09,NNE,26,9.0,16.0,44,0.00,,,0.00,meteohub,2013-04-20 10:12:00,
2013-04-20 03:17:00,59.5,37.6,30.09,NE,50,14.0,17.0,44,0.00,,,0.00,meteohub,2013-04-20 10:17:00,
2013-04-20 03:22:00,59.4,36.9,30.09,NNE,22,11.0,17.0,43,0.00,,,0.00,meteohub,2013-04-20 10:22:00,
2013-04-20 03:27:00,59.4,36.3,30.09,NE,50,9.0,17.0,42,0.00,,,0.00,meteohub,2013-04-20 10:27:00,
2013-04-20 03:32:00,59.5,36.5,30.09,ENE,57,14.0,16.0,42,0.00,,,0.00,meteohub,2013-04-20 10:32:00,
2013-04-20 03:37:00,59.5,36.5,30.09,ENE,58,9.0,16.0,42,0.00,,,0.00,meteohub,2013-04-20 10:37:00,
2013-04-20 03:42:00,59.5,35.8,30.09,NE,49,19.0,19.0,41,0.00,,,0.00,meteohub,2013-04-20 10:42:00,
2013-04-20 03:47:00,59.7,35.4,30.09,North,9,11.0,19.0,40,0.00,,,0.00,meteohub,2013-04-20 10:47:00,
2013-04-20 03:52:00,59.7,34.7,30.09,NNE,24,11.0,19.0,39,0.00,,,0.00,meteohub,2013-04-20 10:52:00,
2013-04-20 03:57:00,59.7,35.4,30.09,NE,51,11.0,19.0,40,0.00,,,0.00,meteohub,2013-04-20 10:57:00,
2013-04-20 04:02:00,59.7,34.7,30.09,NE,44,13.0,18.0,39,0.00,,,0.00,meteohub,2013-04-20 11:02:00,
2013-04-20 04:07:00,59.7,34.7,30.09,NE,44,14.0,18.0,39,0.00,,,0.00,meteohub,2013-04-20 11:07:00,
2013-04-20 04:12:00,59.7,34.0,30.09,NE,43,10.0,18.0,38,0.00,,,0.00,meteohub,2013-04-20 11:12:00,
2013-04-20 04:16:00,59.7,34.0,30.09,NE,55,7.0,18.0,38,0.00,,,0.00,meteohub,2013-04-20 11:16:00,
2013-04-20 04:21:00,59.5,34.0,30.09,North,5,5.0,18.0,38,0.00,,,0.00,meteohub,2013-04-20 11:21:00,
2013-04-20 04:26:00,59.4,33.8,30.09,NE,43,11.0,18.0,38,0.00,,,0.00,meteohub,2013-04-20 11:26:00,
2013-04-20 04:31:00,59.4,33.8,30.09,NE,49,11.0,16.0,38,0.00,,,0.00,meteohub,2013-04-20 11:31:00,
2013-04-20 04:36:00,59.4,33.1,30.09,ENE,65,13.0,15.0,37,0.00,,,0.00,meteohub,2013-04-20 11:36:00,
2013-04-20 04:41:00,59.4,33.1,30.09,NNE,29,9.0,15.0,37,0.00,,,0.00,meteohub,2013-04-20 11:41:00,
2013-04-20 04:46:00,59.4,33.1,30.09,NNE,33,11.0,17.0,37,0.00,,,0.00,meteohub,2013-04-20 11:46:00,
2013-04-20 04:51:00,59.4,33.1,30.09,NE,36,12.0,17.0,37,0.00,,,0.00,meteohub,2013-04-20 11:51:00,
2013-04-20 04:56:00,59.5,33.3,30.09,NE,55,14.0,21.0,37,0.00,,,0.00,meteohub,2013-04-20 11:56:00,
2013-04-20 05:01:00,59.4,33.1,30.09,NE,45,8.0,21.0,37,0.00,,,0.00,meteohub,2013-04-20 12:01:00,
2013-04-20 05:07:00,59.4,33.1,30.09,NNE,28,8.0,20.0,37,0.00,,,0.00,meteohub,2013-04-20 12:07:00,
2013-04-20 05:12:00,59.0,32.7,30.09,ENE,59,16.0,20.0,37,0.00,,,0.00,meteohub,2013-04-20 12:12:00,
2013-04-20 05:17:00,58.8,32.5,30.09,NE,55,9.0,20.0,37,0.00,,,0.00,meteohub,2013-04-20 12:17:00,
2013-04-20 05:22:00,58.8,32.5,30.09,NE,36,12.0,20.0,37,0.00,,,0.00,meteohub,2013-04-20 12:22:00,
2013-04-20 05:27:00,58.8,32.5,30.09,NE,40,11.0,21.0,37,0.00,,,0.00,meteohub,2013-04-20 12:27:00,
2013-04-20 05:32:00,58.6,32.4,30.09,NE,46,13.0,21.0,37,0.00,,,0.00,meteohub,2013-04-20 12:32:00,
2013-04-20 05:37:00,58.5,32.4,30.09,NE,50,16.0,20.0,37,0.00,,,0.00,meteohub,2013-04-20 12:37:00,
2013-04-20 05:42:00,58.3,32.2,30.09,NE,37,16.0,20.0,37,0.00,,,0.00,meteohub,2013-04-20 12:42:00,
2013-04-20 05:47:00,58.3,32.2,30.08,NNE,16,10.0,20.0,37,0.00,,,0.00,meteohub,2013-04-20 12:47:00,
2013-04-20 05:52:00,57.9,32.5,30.09,NNE,33,15.0,20.0,38,0.00,,,0.00,meteohub,2013-04-20 12:52:00,
2013-04-20 05:57:00,57.9,32.5,30.09,ENE,57,11.0,20.0,38,0.00,,,0.00,meteohub,2013-04-20 12:57:00,
2013-04-20 06:02:00,57.7,32.9,30.09,NE,38,10.0,20.0,39,0.00,,,0.00,meteohub,2013-04-20 13:02:00,
2013-04-20 06:07:00,57.6,32.7,30.09,NE,40,6.0,18.0,39,0.00,,,0.00,meteohub,2013-04-20 13:07:00,
2013-04-20 06:12:00,57.2,33.1,30.09,NE,34,12.0,18.0,40,0.00,,,0.00,meteohub,2013-04-20 13:12:00,
2013-04-20 06:17:00,57.0,32.9,30.09,NNE,23,8.0,17.0,40,0.00,,,0.00,meteohub,2013-04-20 13:17:00,
2013-04-20 06:22:00,56.8,32.7,30.09,NNE,30,11.0,17.0,40,0.00,,,0.00,meteohub,2013-04-20 13:22:00,
2013-04-20 06:27:00,56.8,33.4,30.09,NE,38,9.0,17.0,41,0.00,,,0.00,meteohub,2013-04-20 13:27:00,
2013-04-20 06:32:00,56.5,33.6,30.09,NNE,28,11.0,17.0,42,0.00,,,0.00,meteohub,2013-04-20 13:32:00,
2013-04-20 06:37:00,56.5,33.6,30.09,ENE,57,17.0,17.0,42,0.00,,,0.00,meteohub,2013-04-20 13:37:00,
2013-04-20 06:42:00,56.1,34.0,30.09,NNE,32,13.0,16.0,43,0.00,,,0.00,meteohub,2013-04-20 13:42:00,
2013-04-20 06:47:00,56.1,34.0,30.10,NE,45,11.0,17.0,43,0.00,,,0.00,meteohub,2013-04-20 13:47:00,
2013-04-20 06:52:00,56.1,34.0,30.10,NE,52,14.0,17.0,43,0.00,,,0.00,meteohub,2013-04-20 13:52:00,
2013-04-20 06:57:00,56.1,34.0,30.10,NNE,12,11.0,16.0,43,0.00,,,0.00,meteohub,2013-04-20 13:57:00,
2013-04-20 07:02:00,56.1,34.0,30.10,NE,34,12.0,16.0,43,0.00,,,0.00,meteohub,2013-04-20 14:02:00,
2013-04-20 07:07:00,56.1,33.3,30.09,NE,36,12.0,15.0,42,0.00,,,0.00,meteohub,2013-04-20 14:07:00,
2013-04-20 07:12:00,56.3,33.4,30.09,NNE,28,8.0,15.0,42,0.00,,,0.00,meteohub,2013-04-20 14:12:00,
2013-04-20 07:17:00,56.5,33.6,30.09,ENE,61,13.0,15.0,42,0.00,,,0.00,meteohub,2013-04-20 14:17:00,
2013-04-20 07:22:00,56.5,33.6,30.09,NE,49,7.0,19.0,42,0.00,,,0.00,meteohub,2013-04-20 14:22:00,
2013-04-20 07:27:00,56.5,33.6,30.09,NE,34,9.0,19.0,42,0.00,,,0.00,meteohub,2013-04-20 14:27:00,
2013-04-20 07:32:00,56.5,34.3,30.09,NNE,29,9.0,19.0,43,0.00,,,0.00,meteohub,2013-04-20 14:32:00,
2013-04-20 07:37:00,56.7,34.3,30.09,NE,48,14.0,15.0,43,0.00,,,0.00,meteohub,2013-04-20 14:37:00,
2013-04-20 07:42:00,56.8,34.0,30.09,NE,51,9.0,15.0,42,0.00,,,0.00,meteohub,2013-04-20 14:42:00,
2013-04-20 07:47:00,56.8,34.5,30.09,NE,55,12.0,15.0,43,0.00,,,0.00,meteohub,2013-04-20 14:47:00,
2013-04-20 07:52:00,56.8,34.5,30.09,ENE,65,15.0,15.0,43,0.00,,,0.00,meteohub,2013-04-20 14:52:00,
2013-04-20 07:57:00,56.8,34.5,30.09,NE,47,14.0,18.0,43,0.00,,,0.00,meteohub,2013-04-20 14:57:00,
2013-04-20 08:02:00,57.0,35.2,30.10,NE,55,13.0,18.0,44,0.00,,,0.00,meteohub,2013-04-20 15:02:00,
2013-04-20 08:07:00,57.0,35.2,30.09,NE,41,7.0,18.0,44,0.00,,,0.00,meteohub,2013-04-20 15:07:00,
2013-04-20 08:12:00,57.2,35.4,30.09,NE,46,10.0,17.0,44,0.00,,,0.00,meteohub,2013-04-20 15:12:00,
2013-04-20 08:17:00,57.4,35.6,30.10,NE,56,14.0,19.0,44,0.00,,,0.00,meteohub,2013-04-20 15:17:00,
2013-04-20 08:22:00,57.6,35.2,30.10,ENE,57,18.0,21.0,43,0.00,,,0.00,meteohub,2013-04-20 15:22:00,
2013-04-20 08:27:00,57.7,35.4,30.10,NNE,29,15.0,21.0,43,0.00,,,0.00,meteohub,2013-04-20 15:27:00,
2013-04-20 08:32:00,57.7,35.4,30.09,ENE,62,11.0,21.0,43,0.00,,,0.00,meteohub,2013-04-20 15:32:00,
2013-04-20 08:37:00,57.7,35.4,30.09,NE,34,11.0,21.0,43,0.00,,,0.00,meteohub,2013-04-20 15:37:00,
2013-04-20 08:42:00,57.9,35.6,30.09,NNE,28,14.0,23.0,43,0.00,,,0.00,meteohub,2013-04-20 15:42:00,
2013-04-20 08:47:00,57.9,36.7,30.09,NE,43,16.0,23.0,45,0.00,,,0.00,meteohub,2013-04-20 15:47:00,
2013-04-20 08:52:00,58.1,36.3,30.09,NE,46,13.0,23.0,44,0.00,,,0.00,meteohub,2013-04-20 15:52:00,
2013-04-20 08:57:00,58.5,36.7,30.09,NE,50,10.0,20.0,44,0.00,,,0.00,meteohub,2013-04-20 15:57:00,
2013-04-20 09:02:00,58.6,36.1,30.09,ENE,57,13.0,20.0,43,0.00,,,0.00,meteohub,2013-04-20 16:02:00,
2013-04-20 09:07:00,58.6,36.9,30.09,NE,48,16.0,20.0,44,0.00,,,0.00,meteohub,2013-04-20 16:07:00,
2013-04-20 09:12:00,58.8,37.0,30.09,NE,42,13.0,21.0,44,0.00,,,0.00,meteohub,2013-04-20 16:12:00,
2013-04-20 09:17:00,59.2,37.2,30.09,NNE,27,10.0,21.0,44,0.00,,,0.00,meteohub,2013-04-20 16:17:00,
2013-04-20 09:22:00,59.4,36.9,30.09,NE,35,10.0,21.0,43,0.00,,,0.00,meteohub,2013-04-20 16:22:00,
2013-04-20 09:27:00,59.5,37.0,30.09,NE,46,11.0,20.0,43,0.00,,,0.00,meteohub,2013-04-20 16:27:00,
2013-04-20 09:32:00,59.5,37.0,30.08,NE,44,18.0,20.0,43,0.00,,,0.00,meteohub,2013-04-20 16:32:00,
2013-04-20 09:37:00,59.7,37.2,30.08,North,355,4.0,20.0,43,0.00,,,0.00,meteohub,2013-04-20 16:37:00,
2013-04-20 09:42:00,60.1,38.7,30.08,NE,49,8.0,20.0,45,0.00,,,0.00,meteohub,2013-04-20 16:42:00,
2013-04-20 09:47:00,60.4,37.8,30.08,NNE,13,9.0,20.0,43,0.00,,,0.00,meteohub,2013-04-20 16:47:00,
2013-04-20 09:52:00,60.6,37.4,30.08,NE,38,10.0,20.0,42,0.00,,,0.00,meteohub,2013-04-20 16:52:00,
2013-04-20 09:57:00,61.0,38.3,30.08,ENE,61,17.0,20.0,43,0.00,,,0.00,meteohub,2013-04-20 16:57:00,
2013-04-20 10:02:00,61.2,37.9,30.08,NNE,24,9.0,20.0,42,0.00,,,0.00,meteohub,2013-04-20 17:02:00,
2013-04-20 10:07:00,61.7,38.3,30.08,NE,38,12.0,17.0,42,0.00,,,0.00,meteohub,2013-04-20 17:07:00,
2013-04-20 10:12:00,62.2,37.6,30.08,NNE,26,7.0,17.0,40,0.00,,,0.00,meteohub,2013-04-20 17:12:00,
2013-04-20 10:17:00,63.0,38.8,30.08,North,355,15.0,17.0,41,0.00,,,0.00,meteohub,2013-04-20 17:17:00,
2013-04-20 10:22:00,63.3,36.7,30.08,NE,40,13.0,18.0,37,0.00,,,0.00,meteohub,2013-04-20 17:22:00,
2013-04-20 10:27:00,63.0,36.3,30.08,NE,38,10.0,21.0,37,0.00,,,0.00,meteohub,2013-04-20 17:27:00,
2013-04-20 10:32:00,63.1,36.5,30.08,NE,51,15.0,21.0,37,0.00,,,0.00,meteohub,2013-04-20 17:32:00,
2013-04-20 10:37:00,63.9,37.8,30.08,NNE,18,16.0,22.0,38,0.00,,,0.00,meteohub,2013-04-20 17:37:00,
2013-04-20 10:42:00,64.4,36.1,30.08,NE,49,18.0,22.0,35,0.00,,,0.00,meteohub,2013-04-20 17:42:00,
2013-04-20 10:47:00,64.8,35.8,30.07,North,0,12.0,22.0,34,0.00,,,0.00,meteohub,2013-04-20 17:47:00,
2013-04-20 10:52:00,64.9,36.0,30.07,ENE,66,13.0,21.0,34,0.00,,,0.00,meteohub,2013-04-20 17:52:00,
2013-04-20 10:57:00,65.1,34.5,30.07,NNE,14,11.0,21.0,32,0.00,,,0.00,meteohub,2013-04-20 17:57:00,
2013-04-20 11:02:00,65.7,35.8,30.08,NE,34,7.0,21.0,33,0.00,,,0.00,meteohub,2013-04-20 18:02:00,
2013-04-20 11:07:00,65.8,36.0,30.08,North,0,4.0,19.0,33,0.00,,,0.00,meteohub,2013-04-20 18:07:00,
2013-04-20 11:12:00,66.0,34.5,30.08,NE,44,5.0,18.0,31,0.00,,,0.00,meteohub,2013-04-20 18:12:00,
2013-04-20 11:17:00,66.7,38.3,30.08,ENE,61,8.0,18.0,35,0.00,,,0.00,meteohub,2013-04-20 18:17:00,
2013-04-20 11:22:00,67.3,35.6,30.08,North,0,9.0,18.0,31,0.00,,,0.00,meteohub,2013-04-20 18:22:00,
2013-04-20 11:27:00,67.6,37.6,30.08,NE,38,6.0,16.0,33,0.00,,,0.00,meteohub,2013-04-20 18:27:00,
2013-04-20 11:32:00,67.8,36.1,30.08,NW,321,8.0,16.0,31,0.00,,,0.00,meteohub,2013-04-20 18:32:00,
2013-04-20 11:37:00,67.8,36.1,30.08,NE,42,7.0,16.0,31,0.00,,,0.00,meteohub,2013-04-20 18:37:00,
2013-04-20 11:42:00,68.0,35.4,30.07,North,9,6.0,15.0,30,0.00,,,0.00,meteohub,2013-04-20 18:42:00,
2013-04-20 11:47:00,68.2,34.7,30.07,NNE,24,11.0,15.0,29,0.00,,,0.00,meteohub,2013-04-20 18:47:00,
2013-04-20 11:52:00,68.2,36.3,30.07,NE,54,10.0,15.0,31,0.00,,,0.00,meteohub,2013-04-20 18:52:00,
2013-04-20 11:57:00,68.2,35.6,30.07,NNE,23,9.0,16.0,30,0.00,,,0.00,meteohub,2013-04-20 18:57:00,
2013-04-20 12:02:00,68.4,37.4,30.07,NNE,31,8.0,16.0,32,0.00,,,0.00,meteohub,2013-04-20 19:02:00,
2013-04-20 12:07:00,68.7,36.0,30.06,ENE,57,7.0,16.0,30,0.00,,,0.00,meteohub,2013-04-20 19:07:00,
2013-04-20 12:12:00,68.7,38.5,30.06,NNE,30,8.0,15.0,33,0.00,,,0.00,meteohub,2013-04-20 19:12:00,
2013-04-20 12:17:00,68.9,36.1,30.06,NNE,19,8.0,15.0,30,0.00,,,0.00,meteohub,2013-04-20 19:17:00,
2013-04-20 12:22:00,68.9,37.0,30.06,NW,324,3.0,15.0,31,0.00,,,0.00,meteohub,2013-04-20 19:22:00,
2013-04-20 12:27:00,69.1,35.4,30.06,NW,321,5.0,13.0,29,0.00,,,0.00,meteohub,2013-04-20 19:27:00,
2013-04-20 12:32:00,69.3,34.7,30.06,NNW,348,4.0,14.0,28,0.00,,,0.00,meteohub,2013-04-20 19:32:00,
2013-04-20 12:37:00,69.6,35.1,30.06,NE,50,2.0,14.0,28,0.00,,,0.00,meteohub,2013-04-20 19:37:00,
2013-04-20 12:42:00,69.8,37.0,30.06,ENE,58,8.0,14.0,30,0.00,,,0.00,meteohub,2013-04-20 19:42:00,
2013-04-20 12:48:00,70.0,34.5,30.06,ENE,69,2.0,11.0,27,0.00,,,0.00,meteohub,2013-04-20 19:48:00,
2013-04-20 12:53:00,70.3,36.5,30.06,NNE,26,8.0,11.0,29,0.00,,,0.00,meteohub,2013-04-20 19:53:00,
2013-04-20 12:58:00,70.3,34.7,30.06,NE,40,3.0,13.0,27,0.00,,,0.00,meteohub,2013-04-20 19:58:00,
2013-04-20 13:03:00,70.7,35.1,30.05,North,355,5.0,13.0,27,0.00,,,0.00,meteohub,2013-04-20 20:03:00,
2013-04-20 13:08:00,71.2,35.6,30.05,ENE,66,5.0,13.0,27,0.00,,,0.00,meteohub,2013-04-20 20:08:00,
2013-04-20 13:13:00,71.4,36.7,30.05,NE,50,6.0,10.0,28,0.00,,,0.00,meteohub,2013-04-20 20:13:00,
2013-04-20 13:18:00,71.4,33.8,30.05,NE,51,8.0,9.0,25,0.00,,,0.00,meteohub,2013-04-20 20:18:00,
2013-04-20 13:23:00,71.4,35.8,30.05,NE,47,9.0,9.0,27,0.00,,,0.00,meteohub,2013-04-20 20:23:00,
2013-04-20 13:28:00,72.0,36.1,30.04,NNE,16,6.0,10.0,27,0.00,,,0.00,meteohub,2013-04-20 20:28:00,
2013-04-20 13:33:00,72.3,34.5,30.04,NNE,12,9.0,11.0,25,0.00,,,0.00,meteohub,2013-04-20 20:33:00,
2013-04-20 13:38:00,72.1,30.0,30.04,NNE,28,5.0,13.0,21,0.00,,,0.00,meteohub,2013-04-20 20:38:00,
2013-04-20 13:43:00,72.0,36.1,30.04,NNE,16,2.0,13.0,27,0.00,,,0.00,meteohub,2013-04-20 20:43:00,
2013-04-20 13:48:00,72.3,35.6,30.04,NNE,24,8.0,13.0,26,0.00,,,0.00,meteohub,2013-04-20 20:48:00,
2013-04-20 13:53:00,72.7,34.9,30.04,West,281,4.0,11.0,25,0.00,,,0.00,meteohub,2013-04-20 20:53:00,
2013-04-20 13:58:00,73.0,37.0,30.03,ENE,78,4.0,11.0,27,0.00,,,0.00,meteohub,2013-04-20 20:58:00,
2013-04-20 14:03:00,73.0,33.1,30.03,ENE,63,1.0,11.0,23,0.00,,,0.00,meteohub,2013-04-20 21:03:00,
2013-04-20 14:08:00,73.2,34.3,30.03,NW,313,3.0,10.0,24,0.00,,,0.00,meteohub,2013-04-20 21:08:00,
2013-04-20 14:13:00,73.8,34.7,30.03,NNW,327,4.0,10.0,24,0.00,,,0.00,meteohub,2013-04-20 21:13:00,
2013-04-20 14:18:00,74.3,34.2,30.03,West,267,3.0,8.0,23,0.00,,,0.00,meteohub,2013-04-20 21:18:00,
2013-04-20 14:23:00,74.8,37.6,30.03,NNE,16,5.0,8.0,26,0.00,,,0.00,meteohub,2013-04-20 21:23:00,
2013-04-20 14:28:00,75.0,36.9,30.03,NNE,17,3.0,9.0,25,0.00,,,0.00,meteohub,2013-04-20 21:28:00,
2013-04-20 14:33:00,75.2,33.8,30.03,NW,313,4.0,10.0,22,0.00,,,0.00,meteohub,2013-04-20 21:33:00,
2013-04-20 14:38:00,75.0,32.4,30.02,NE,34,7.0,10.0,21,0.00,,,0.00,meteohub,2013-04-20 21:38:00,
2013-04-20 14:43:00,75.2,34.9,30.02,NE,39,6.0,10.0,23,0.00,,,0.00,meteohub,2013-04-20 21:43:00,
2013-04-20 14:48:00,75.2,33.8,30.02,NE,41,6.0,9.0,22,0.00,,,0.00,meteohub,2013-04-20 21:48:00,
2013-04-20 14:53:00,75.0,34.7,30.02,North,355,4.0,10.0,23,0.00,,,0.00,meteohub,2013-04-20 21:53:00,
2013-04-20 14:58:00,75.2,32.5,30.02,NE,47,6.0,10.0,21,0.00,,,0.00,meteohub,2013-04-20 21:58:00,
2013-04-20 15:03:00,75.2,33.8,30.02,NNE,30,4.0,12.0,22,0.00,,,0.00,meteohub,2013-04-20 22:03:00,
2013-04-20 15:08:00,75.4,35.1,30.02,North,5,10.0,12.0,23,0.00,,,0.00,meteohub,2013-04-20 22:08:00,
2013-04-20 15:13:00,75.9,33.3,30.01,NNE,13,4.0,12.0,21,0.00,,,0.00,meteohub,2013-04-20 22:13:00,
2013-04-20 15:18:00,75.7,31.8,30.01,NE,55,2.0,12.0,20,0.00,,,0.00,meteohub,2013-04-20 22:18:00,
2013-04-20 15:23:00,75.9,34.3,30.01,NNE,21,2.0,10.0,22,0.00,,,0.00,meteohub,2013-04-20 22:23:00,
2013-04-20 15:28:00,76.3,34.7,30.01,North,10,3.0,9.0,22,0.00,,,0.00,meteohub,2013-04-20 22:28:00,
2013-04-20 15:33:00,76.6,33.8,30.01,West,275,5.0,9.0,21,0.00,,,0.00,meteohub,2013-04-20 22:33:00,
2013-04-20 15:38:00,77.2,37.6,30.00,NW,322,1.0,7.0,24,0.00,,,0.00,meteohub,2013-04-20 22:38:00,
2013-04-20 15:43:00,77.4,34.3,30.00,NE,45,2.0,8.0,21,0.00,,,0.00,meteohub,2013-04-20 22:43:00,
2013-04-20 15:48:00,77.7,35.8,30.00,SW,222,3.0,8.0,22,0.00,,,0.00,meteohub,2013-04-20 22:48:00,
2013-04-20 15:53:00,78.4,36.5,30.00,WNW,290,3.0,8.0,22,0.00,,,0.00,meteohub,2013-04-20 22:53:00,
2013-04-20 15:58:00,78.6,37.8,30.00,NNW,333,3.0,7.0,23,0.00,,,0.00,meteohub,2013-04-20 22:58:00,
2013-04-20 16:03:00,78.6,38.8,29.99,WSW,238,5.0,7.0,24,0.00,,,0.00,meteohub,2013-04-20 23:03:00,
2013-04-20 16:08:00,78.6,42.8,30.00,South,170,4.0,7.0,28,0.00,,,0.00,meteohub,2013-04-20 23:08:00,
2013-04-20 16:13:00,78.1,45.0,29.99,NW,309,2.0,8.0,31,0.00,,,0.00,meteohub,2013-04-20 23:13:00,
2013-04-20 16:18:00,78.3,46.0,29.99,SSW,212,8.0,8.0,32,0.00,,,0.00,meteohub,2013-04-20 23:18:00,
2013-04-20 16:23:00,77.9,45.7,29.99,West,267,3.0,10.0,32,0.00,,,0.00,meteohub,2013-04-20 23:23:00,
2013-04-20 16:28:00,77.5,45.3,29.99,West,259,4.0,10.0,32,0.00,,,0.00,meteohub,2013-04-20 23:28:00,
2013-04-20 16:33:00,77.4,46.8,29.99,WSW,254,3.0,10.0,34,0.00,,,0.00,meteohub,2013-04-20 23:33:00,
2013-04-20 16:38:00,77.4,46.0,29.99,WNW,298,5.0,9.0,33,0.00,,,0.00,meteohub,2013-04-20 23:38:00,
2013-04-20 16:43:00,77.4,46.0,29.99,WSW,257,4.0,8.0,33,0.00,,,0.00,meteohub,2013-04-20 23:43:00,
2013-04-20 16:48:00,77.0,45.7,29.99,West,264,8.0,9.0,33,0.00,,,0.00,meteohub,2013-04-20 23:48:00,
2013-04-20 16:53:00,76.6,45.3,29.99,West,273,3.0,10.0,33,0.00,,,0.00,meteohub,2013-04-20 23:53:00,
2013-04-20 16:58:00,76.3,45.9,29.99,WSW,252,7.0,10.0,34,0.00,,,0.00,meteohub,2013-04-20 23:58:00,
2013-04-20 17:04:00,75.7,46.2,29.99,WSW,253,8.0,11.0,35,0.00,,,0.00,meteohub,2013-04-21 00:04:00,
2013-04-20 17:09:00,75.4,46.6,29.99,West,266,3.0,11.0,36,0.00,,,0.00,meteohub,2013-04-21 00:09:00,
2013-04-20 17:14:00,75.2,47.1,29.98,West,266,6.0,11.0,37,0.00,,,0.00,meteohub,2013-04-21 00:14:00,
2013-04-20 17:19:00,75.2,45.7,29.98,WSW,249,8.0,10.0,35,0.00,,,0.00,meteohub,2013-04-21 00:19:00,
2013-04-20 17:24:00,75.0,45.5,29.98,SW,221,5.0,10.0,35,0.00,,,0.00,meteohub,2013-04-21 00:24:00,
2013-04-20 17:29:00,74.8,45.3,29.98,SW,236,6.0,9.0,35,0.00,,,0.00,meteohub,2013-04-21 00:29:00,
2013-04-20 17:34:00,74.8,45.3,29.98,WSW,257,6.0,11.0,35,0.00,,,0.00,meteohub,2013-04-21 00:34:00,
2013-04-20 17:39:00,74.7,45.1,29.98,WSW,246,6.0,11.0,35,0.00,,,0.00,meteohub,2013-04-21 00:39:00,
2013-04-20 17:44:00,74.5,45.0,29.97,SW,232,6.0,11.0,35,0.00,,,0.00,meteohub,2013-04-21 00:44:00,
2013-04-20 17:49:00,74.1,44.8,29.97,SW,229,5.0,12.0,35,0.00,,,0.00,meteohub,2013-04-21 00:49:00,
2013-04-20 17:54:00,73.9,45.3,29.97,West,263,6.0,12.0,36,0.00,,,0.00,meteohub,2013-04-21 00:54:00,
2013-04-20 17:59:00,73.8,44.4,29.98,SW,228,2.0,12.0,35,0.00,,,0.00,meteohub,2013-04-21 00:59:00,
2013-04-20 18:04:00,73.8,45.1,29.97,WSW,238,3.0,10.0,36,0.00,,,0.00,meteohub,2013-04-21 01:04:00,
2013-04-20 18:09:00,73.8,45.1,29.98,WSW,254,7.0,9.0,36,0.00,,,0.00,meteohub,2013-04-21 01:09:00,
2013-04-20 18:14:00,73.8,45.1,29.97,West,263,3.0,9.0,36,0.00,,,0.00,meteohub,2013-04-21 01:14:00,
2013-04-20 18:19:00,73.6,45.0,29.97,SSW,202,7.0,8.0,36,0.00,,,0.00,meteohub,2013-04-21 01:19:00,
2013-04-20 18:24:00,73.6,45.0,29.97,WSW,258,5.0,11.0,36,0.00,,,0.00,meteohub,2013-04-21 01:24:00,
2013-04-20 18:29:00,73.2,45.3,29.97,SW,232,2.0,11.0,37,0.00,,,0.00,meteohub,2013-04-21 01:29:00,
2013-04-20 18:34:00,73.0,45.1,29.97,WSW,252,5.0,11.0,37,0.00,,,0.00,meteohub,2013-04-21 01:34:00,
2013-04-20 18:39:00,72.9,45.1,29.97,West,261,1.0,8.0,37,0.00,,,0.00,meteohub,2013-04-21 01:39:00,
2013-04-20 18:44:00,72.7,45.0,29.97,WSW,241,5.0,8.0,37,0.00,,,0.00,meteohub,2013-04-21 01:44:00,
2013-04-20 18:49:00,72.3,45.3,29.97,SW,222,4.0,8.0,38,0.00,,,0.00,meteohub,2013-04-21 01:49:00,
2013-04-20 18:54:00,72.0,45.7,29.97,WSW,250,2.0,8.0,39,0.00,,,0.00,meteohub,2013-04-21 01:54:00,
2013-04-20 18:59:00,71.8,44.8,29.97,West,268,4.0,8.0,38,0.00,,,0.00,meteohub,2013-04-21 01:59:00,
2013-04-20 19:04:00,71.4,44.4,29.97,WSW,256,2.0,7.0,38,0.00,,,0.00,meteohub,2013-04-21 02:04:00,
2013-04-20 19:09:00,71.2,44.2,29.98,WSW,251,4.0,9.0,38,0.00,,,0.00,meteohub,2013-04-21 02:09:00,
2013-04-20 19:14:00,71.1,44.2,29.97,WNW,285,4.0,9.0,38,0.00,,,0.00,meteohub,2013-04-21 02:14:00,
2013-04-20 19:19:00,70.9,44.8,29.97,West,265,0.0,9.0,39,0.00,,,0.00,meteohub,2013-04-21 02:19:00,
2013-04-20 19:24:00,70.7,44.6,29.98,SW,214,2.0,6.0,39,0.00,,,0.00,meteohub,2013-04-21 02:24:00,
2013-04-20 19:29:00,70.5,45.0,29.98,WSW,257,3.0,6.0,40,0.00,,,0.00,meteohub,2013-04-21 02:29:00,
2013-04-20 19:34:00,70.2,44.1,29.98,WSW,257,1.0,4.0,39,0.00,,,0.00,meteohub,2013-04-21 02:34:00,
2013-04-20 19:39:00,69.8,44.4,29.98,WSW,257,2.0,4.0,40,0.00,,,0.00,meteohub,2013-04-21 02:39:00,
2013-04-20 19:44:00,69.4,44.1,29.98,WSW,257,2.0,3.0,40,0.00,,,0.00,meteohub,2013-04-21 02:44:00,
2013-04-20 19:48:00,68.9,44.2,29.98,West,269,1.0,3.0,41,0.00,,,0.00,meteohub,2013-04-21 02:48:00,
2013-04-20 19:53:00,68.4,43.7,29.98,WSW,246,2.0,4.0,41,0.00,,,0.00,meteohub,2013-04-21 02:53:00,
2013-04-20 19:58:00,67.8,43.3,29.99,West,264,2.0,4.0,41,0.00,,,0.00,meteohub,2013-04-21 02:58:00,
2013-04-20 20:03:00,67.5,43.5,29.98,West,270,0.0,5.0,42,0.00,,,0.00,meteohub,2013-04-21 03:03:00,
2013-04-20 20:09:00,67.3,43.3,29.98,West,278,1.0,6.0,42,0.00,,,0.00,meteohub,2013-04-21 03:09:00,
2013-04-20 20:14:00,66.9,43.2,29.98,SW,226,3.0,6.0,42,0.00,,,0.00,meteohub,2013-04-21 03:14:00,
2013-04-20 20:19:00,66.7,43.0,29.99,SW,226,1.0,6.0,42,0.00,,,0.00,meteohub,2013-04-21 03:19:00,
2013-04-20 20:24:00,66.6,42.8,29.99,SW,226,1.0,4.0,42,0.00,,,0.00,meteohub,2013-04-21 03:24:00,
2013-04-20 20:29:00,66.4,43.2,29.99,SW,226,0.0,3.0,43,0.00,,,0.00,meteohub,2013-04-21 03:29:00,
2013-04-20 20:34:00,66.2,43.0,29.99,SW,226,0.0,3.0,43,0.00,,,0.00,meteohub,2013-04-21 03:34:00,
2013-04-20 20:39:00,66.0,43.5,29.99,SW,226,0.0,2.0,44,0.00,,,0.00,meteohub,2013-04-21 03:39:00,
2013-04-20 20:44:00,65.7,43.2,29.99,SW,226,2.0,2.0,44,0.00,,,0.00,meteohub,2013-04-21 03:44:00,
2013-04-20 20:48:00,65.5,43.0,29.99,SW,226,1.0,3.0,44,0.00,,,0.00,meteohub,2013-04-21 03:48:00,
2013-04-20 20:53:00,65.3,42.8,29.99,SW,226,1.0,3.0,44,0.00,,,0.00,meteohub,2013-04-21 03:53:00,
2013-04-20 20:59:00,65.3,42.8,29.99,SW,226,1.0,3.0,44,0.00,,,0.00,meteohub,2013-04-21 03:59:00,
2013-04-20 21:01:00,65.3,42.8,30.00,SW,226,1.0,3.0,44,0.00,,,0.00,meteohub,2013-04-21 04:01:00,
2013-04-20 21:02:00,65.3,42.8,30.00,SW,226,1.0,3.0,44,0.00,,,0.00,meteohub,2013-04-21 04:02:00,
2013-04-20 21:07:00,65.1,43.3,30.00,SW,226,2.0,2.0,45,0.00,,,0.00,meteohub,2013-04-21 04:07:00,
2013-04-20 21:12:00,64.9,42.4,30.00,SW,226,0.0,2.0,44,0.00,,,0.00,meteohub,2013-04-21 04:12:00,
2013-04-20 21:17:00,64.9,43.2,30.00,SW,226,2.0,2.0,45,0.00,,,0.00,meteohub,2013-04-21 04:17:00,
2013-04-20 21:22:00,64.8,43.0,30.00,SW,226,1.0,2.0,45,0.00,,,0.00,meteohub,2013-04-21 04:22:00,
2013-04-20 21:27:00,64.6,44.4,30.01,SW,226,0.0,2.0,48,0.00,,,0.00,meteohub,2013-04-21 04:27:00,
2013-04-20 21:32:00,64.0,42.8,30.01,SW,226,1.0,2.0,46,0.00,,,0.00,meteohub,2013-04-21 04:32:00,
2013-04-20 21:37:00,63.9,43.2,30.01,SW,226,0.0,2.0,47,0.00,,,0.00,meteohub,2013-04-21 04:37:00,
2013-04-20 21:42:00,63.7,44.8,30.01,SW,226,0.0,2.0,50,0.00,,,0.00,meteohub,2013-04-21 04:42:00,
2013-04-20 21:47:00,63.5,45.0,30.01,SW,226,0.0,2.0,51,0.00,,,0.00,meteohub,2013-04-21 04:47:00,
2013-04-20 21:52:00,63.0,44.6,30.01,SW,226,0.0,2.0,51,0.00,,,0.00,meteohub,2013-04-21 04:52:00,
2013-04-20 21:57:00,62.2,43.9,30.01,SW,226,0.0,2.0,51,0.00,,,0.00,meteohub,2013-04-21 04:57:00,
2013-04-20 22:02:00,61.3,44.6,30.01,SW,226,0.0,2.0,54,0.00,,,0.00,meteohub,2013-04-21 05:02:00,
2013-04-20 22:07:00,61.0,44.2,30.01,SW,226,0.0,2.0,54,0.00,,,0.00,meteohub,2013-04-21 05:07:00,
2013-04-20 22:12:00,60.3,44.1,30.01,SW,226,1.0,2.0,55,0.00,,,0.00,meteohub,2013-04-21 05:12:00,
2013-04-20 22:17:00,59.4,43.7,30.01,SW,226,0.0,2.0,56,0.00,,,0.00,meteohub,2013-04-21 05:17:00,
2013-04-20 22:22:00,58.6,43.5,30.01,SW,226,2.0,2.0,57,0.00,,,0.00,meteohub,2013-04-21 05:22:00,
2013-04-20 22:27:00,58.1,43.3,30.01,SW,226,1.0,2.0,58,0.00,,,0.00,meteohub,2013-04-21 05:27:00,
2013-04-20 22:32:00,57.7,43.5,30.01,SW,226,0.0,2.0,59,0.00,,,0.00,meteohub,2013-04-21 05:32:00,
2013-04-20 22:37:00,57.4,43.7,30.01,SW,226,0.0,2.0,60,0.00,,,0.00,meteohub,2013-04-21 05:37:00,
2013-04-20 22:42:00,56.8,43.2,30.01,SW,226,0.0,2.0,60,0.00,,,0.00,meteohub,2013-04-21 05:42:00,
2013-04-20 22:47:00,56.8,43.5,30.01,SW,226,0.0,2.0,61,0.00,,,0.00,meteohub,2013-04-21 05:47:00,
2013-04-20 22:52:00,56.5,43.7,30.01,SW,226,0.0,2.0,62,0.00,,,0.00,meteohub,2013-04-21 05:52:00,
2013-04-20 22:57:00,56.3,43.9,30.01,SW,226,0.0,1.0,63,0.00,,,0.00,meteohub,2013-04-21 05:57:00,
2013-04-20 23:02:00,55.9,43.9,30.01,SW,226,0.0,1.0,64,0.00,,,0.00,meteohub,2013-04-21 06:02:00,
2013-04-20 23:07:00,55.6,43.5,30.01,SW,226,0.0,1.0,64,0.00,,,0.00,meteohub,2013-04-21 06:07:00,
2013-04-20 23:12:00,55.2,43.7,30.00,SW,226,0.0,2.0,65,0.00,,,0.00,meteohub,2013-04-21 06:12:00,
2013-04-20 23:17:00,54.9,43.0,30.00,SW,226,0.0,2.0,64,0.00,,,0.00,meteohub,2013-04-21 06:17:00,
2013-04-20 23:22:00,54.7,42.8,30.00,SW,226,0.0,2.0,64,0.00,,,0.00,meteohub,2013-04-21 06:22:00,
2013-04-20 23:27:00,54.3,43.2,30.00,SW,226,0.0,0.0,66,0.00,,,0.00,meteohub,2013-04-21 06:27:00,
2013-04-20 23:32:00,54.0,43.7,30.00,SW,226,1.0,1.0,68,0.00,,,0.00,meteohub,2013-04-21 06:32:00,
2013-04-20 23:37:00,53.4,43.2,30.00,SW,226,2.0,3.0,68,0.00,,,0.00,meteohub,2013-04-21 06:37:00,
2013-04-20 23:42:00,53.4,43.2,30.00,SW,226,2.0,3.0,68,0.00,,,0.00,meteohub,2013-04-21 06:42:00,
2013-04-20 23:47:00,53.2,43.0,30.01,SW,226,0.0,4.0,68,0.00,,,0.00,meteohub,2013-04-21 06:47:00,
2013-04-20 23:52:00,53.2,43.0,30.01,SW,226,0.0,4.0,68,0.00,,,0.00,meteohub,2013-04-21 06:52:00,
2013-04-20 23:57:00,53.2,43.3,30.01,SW,226,0.0,4.0,69,0.00,,,0.00,meteohub,2013-04-21 06:57:00,